Location: Knowlton
(51.2333°N, 1.2667°E)
Time: 03:21:57
(UTC+00:00)

ERS-1 Rocket - Pass Details

Date: 18 April 2021
Orbit: 753 x 758 km, 98.4° (Epoch: 06 May)

Event Time Altitude Azimuth Distance (km) Brightness Sun altitude
Exits shadow 20:54:40 28° 132° (SE) 1,385 3.7 -16.5°
Maximum altitude 20:57:05 54° 68° (ENE) 917 3.2 -16.8°
Drops below altitude 10° 21:01:59 10° 353° (N) 2,290 6.2 -17.4°
Sets 21:04:19 0° 349° (N) 3,219 7.2 -17.6°
